map of PLL home
Great Circle Mapper logo
PLL - Airport
Location
City:  Manaus, Amazonas, Brazil
Name:Ponta Pelada
ICAO / IATA:SBMN / PLL

Details
Type:Airport (Aerodrome, Airfield)
Use:Military
Latitude:308'46"S (-3.146041)
Longitude:5959'11"W (-59.986299)
Datum:WGS 1984
Elevation:267 ft (81 m)
Runways:1
Longest:7605 × 148 ft (2318 × 45 m), paved

Time
Time Zone:UTC-4
Local Time:

Weather
METAR:SBMN 181900Z 21003KT 9999 SCT020 FEW025TCU 30/20 Q1009 RETS
TAF:SBMN 181600Z 1818/1918 13005KT 9999 SCT020 FEW025TCU TN25/1907Z T X33/ 1917Z PROB30 1819/1822 5000 TSRA SCT020 FEW025CB
BECMG 1822/1824 2800 3KT FEW025TCU
BECMG 1901/1903 07003KT CAVOK
BECMG 1911/1913 13005KT 9 999 FEW020
BECMG 1916/1918 16005KT SCT020 FEW025TCU
RMK PEN

Related Locations
Nearby:
Farthest:SMM: 12307 mi / 19806 km
Semporna, Sabah, MY

Find:

   beyond  
but within

Other Information
Maps:
NOTAMs:
Links:
Sources:

  
flag of Brazil
flag of Amazonas
flag of Manaus
  

Sectional Chart

Flight Planning
at skyvector.com

Satellite Image

Google Maps Satellite View

 

Copyright © 2004-2014 Karl L. Swartz. All rights reserved.
The Great Circle Mapper name and logo are trademarks of the Great Circle Mapper.
All other trademarks mentioned herein belong to their respective owners.
Please see credits for attibutions and further copyright information.

  Follow gcmap on Facebook Follow gcmap on Twitter

hCard Microformat

Geo Microformat